This is the latest recevied weather packets stored in our database for station/object W9WRP. If no packets are shown the sender has not sent any weather packets the latest 10 day(s).
| Time | Temp. | Humidity | Pressure | Rain* | Wind** | Luminosity | Snow |
|---|---|---|---|---|---|---|---|
| 1787524904 | 45° C | 15% | 1013.4 hPa | 0 mm | - | 283 W/m² | - |
| 1787524599 | 44.44° C | 15% | 1013.4 hPa | 0 mm | - | 393 W/m² | - |
| 1787524294 | 43.33° C | 16% | 1013.7 hPa | 0 mm | - | 462 W/m² | - |
| 1787523991 | 43.89° C | 16% | 1013.7 hPa | 0 mm | - | 258 W/m² | - |
| 1787523686 | 44.44° C | 16% | 1013.7 hPa | 0 mm | - | 523 W/m² | - |
| 1787523385 | 43.89° C | 16% | 1013.5 hPa | 0 mm | - | 539 W/m² | - |
| 1787523081 | 44.44° C | 16% | 1013.6 hPa | 0 mm | - | 541 W/m² | - |
| 1787522777 | 44.44° C | 16% | 1013.7 hPa | 0 mm | - | 386 W/m² | - |
| 1787522472 | 44.44° C | 16% | 1013.9 hPa | 0 mm | - | 395 W/m² | - |
| 1787522167 | 43.89° C | 16% | 1013.6 hPa | 0 mm | - | 490 W/m² | - |
| 1787521866 | 43.89° C | 16% | 1013.8 hPa | 0 mm | - | 572 W/m² | - |
| 1787521560 | 44.44° C | 17% | 1014.2 hPa | 0 mm | - | 475 W/m² | - |
| 1787521255 | 43.89° C | 16% | 1014.3 hPa | 0 mm | - | 527 W/m² | - |
| 1787520950 | 45° C | 16% | 1014.2 hPa | 0 mm | - | 449 W/m² | - |
| 1787520646 | 45° C | 16% | 1014.2 hPa | 0 mm | - | 622 W/m² | - |
| 1787520341 | 43.89° C | 16% | 1014.4 hPa | 0 mm | - | 616 W/m² | - |
| 1787520037 | 43.89° C | 17% | 1014 hPa | 0 mm | - | 626 W/m² | - |
| 1787519727 | 43.89° C | 16% | 1014.3 hPa | 0 mm | - | 632 W/m² | - |
| 1787519426 | 43.33° C | 17% | 1014.4 hPa | 0 mm | - | 632 W/m² | - |
| 1787519122 | 43.89° C | 17% | 1014.4 hPa | 0 mm | - | 639 W/m² | - |
| 1787518817 | 43.89° C | 17% | 1014.6 hPa | 0 mm | - | 648 W/m² | - |
| 1787518513 | 43.89° C | 16% | 1014.5 hPa | 0 mm | - | 655 W/m² | - |
| 1787518213 | 43.89° C | 15% | 1014.7 hPa | 0 mm | - | 668 W/m² | - |
| 1787517909 | 43.33° C | 16% | 1014.8 hPa | 0 mm | - | 676 W/m² | - |
| 1787517603 | 42.78° C | 16% | 1014.6 hPa | 0 mm | - | 679 W/m² | - |
* Rain latest hour (hover to see other rain measurements)
** Current wind speed in m/s (hover to see current wind gust speed)